Regional Weather Roundup
Issued by NWS

Home | Current Version | Previous Version | Graphics & Text | Print | Product List | Glossary On
Versions: 1 2 3 4 5 6 7 8 9 10 11 12 13 14 15 16 17 18 19 20 21 22 23 24 25 26 27 28 29 30 31 32 33 34 35 36 37 38 39 40 41 42 43 44 45 46 47 48 49 50
000
ASUS45 KCYS 312010
RWRWY

WYOMING REGIONAL WEATHER ROUNDUP
NATIONAL WEATHER SERVICE CHEYENNE WY
200 PM MDT SUN AUG 31 2014

NOTE:  "FAIR" INDICATES FEW OR NO CLOUDS BELOW 12,000 FEET
WITH NO SIGNIFICANT WEATHER AND/OR OBSTRUCTIONS TO VISIBILITY.

WYZ001-312100-
YELLOWSTONE NATIONAL PARK

CITY           SKY/WX    TMP DP  RH WIND       PRES   REMARKS
LK YELLOWSTONE   N/A     46  42  86 VRB3      30.11R
W YELLOWSTONE  NOT AVBL

$$
WYZ002>013-054>058-071-098>099-312100-
NORTHERN WYOMING

CITY           SKY/WX    TMP DP  RH WIND       PRES   REMARKS
JACKSON        PTSUNNY   55  43  62 SW9       30.07S
CODY             N/A    N/A N/A N/A MISG        N/A
GREYBULL       PTSUNNY   67  51  56 CALM      29.88S
WORLAND        CLOUDY    62  51  67 W12       29.90F
SHERIDAN       CLOUDY    67  45  45 N8        29.87S
BUFFALO        LGT RAIN  55  48  77 W14       29.93R
GILLETTE       PTSUNNY   66  54  65 N8        29.84F
HULETT         LGT RAIN  59  54  82 MISG      29.86
NEWCASTLE      TSTM      61  50  67 N15G24    29.82

$$
WYZ014>020-022>026-101>103-312100-
CENTRAL WYOMING

CITY           SKY/WX    TMP DP  RH WIND       PRES   REMARKS
BIG PINEY      MOSUNNY   59  35  40 NW10G23   30.08S
PINEDALE       CLOUDY    54  37  54 W18G24    30.10R
DUBOIS         MOCLDY    52  37  58 N20G25    30.04R
LANDER         MOSUNNY   65  47  52 NE9       29.92R
RIVERTON       PTSUNNY   63  42  46 N9G21     29.94R
CASPER         PTSUNNY   67  42  40 N29G35    29.89R
DOUGLAS        PTSUNNY   69  42  37 W16       29.85F

$$
WYZ021-027>030-104>119-312100-
SOUTHERN WYOMING

CITY           SKY/WX    TMP DP  RH WIND       PRES   REMARKS
EVANSTON       MOSUNNY   62  34  35 W20G35    30.13R
KEMMERER       MOCLDY    59  32  36 W23       30.12S
FORT BRIDGER   FAIR      65  34  31 W22G35    30.12S
ROCK SPRINGS   MOSUNNY   65  35  33 W28G38    30.05F
DIXON          FAIR      62  44  52 SW5       30.09F
RAWLINS        LGT RAIN  59  42  53 W21G35    30.01S
SARATOGA       FAIR      61  45  55 W17G28    30.05F
LARAMIE        MOSUNNY   60  42  51 SW20G36   30.03F
CHEYENNE       CLOUDY    64  44  48 W17G25    29.96R
TORRINGTON     CLOUDY    72  44  36 W17G25    29.82F
PINE BLUFFS    MOCLDY    59  43  55 W13       29.93F

$$



USA.gov is the U.S. government's official web portal to all federal, state and local government web resources and services.